CW7016 Weather Reports


time (UTC)temp
F
wind
direction
speed
knots
gust
knots
rain 1hr
in
rain 24hr
in
rain mn
in
humidity
%
barometer
mb
20260505112301 56 149 0.0 0.9 0.00 0.00 0.00 85 1010.0
20260505111728 56 149 0.9 0.9 0.00 0.00 0.00 85 1010.0
20260505111242 56 149 0.0 0.0 0.00 0.00 0.00 85 1010.1
20260505110734 55 149 0.0 0.0 0.00 0.00 0.00 85 1010.0
20260505110239 55 149 0.0 0.0 0.00 0.00 0.00 84 1010.0
20260505101742 56 149 0.0 0.0 0.00 0.00 0.00 81 1009.6
20260505101233 56 149 0.0 0.0 0.00 0.00 0.00 81 1009.4
20260505100722 56 149 0.0 0.0 0.00 0.00 0.00 81 1009.4
20260505100236 56 149 0.0 1.7 0.00 0.00 0.00 81 1009.3
20260505095724 56 149 0.0 4.3 0.00 0.00 0.00 81 1009.4
20260505095219 56 149 0.0 4.3 0.00 0.00 0.00 81 1009.3
20260505094737 56 171 0.9 3.5 0.00 0.00 0.00 80 1009.3
20260505094255 56 171 0.9 3.5 0.00 0.00 0.00 80 1009.3
20260505093722 56 171 0.0 1.7 0.00 0.00 0.00 80 1009.2
20260505093238 57 171 0.0 1.7 0.00 0.00 0.00 79 1009.2
20260505092729 57 171 0.0 0.9 0.00 0.00 0.00 78 1009.3
20260505092242 57 171 0.0 1.7 0.00 0.00 0.00 78 1009.1
20260505091732 57 171 0.0 1.7 0.00 0.00 0.00 78 1009.1
20260505091221 57 171 0.0 2.6 0.00 0.00 0.00 78 1009.1
20260505090738 57 171 0.0 3.5 0.00 0.00 0.00 78 1009.1
20260505090245 58 171 0.9 3.5 0.00 0.00 0.00 78 1009.1
20260505085737 58 171 0.9 2.6 0.00 0.00 0.00 79 1009.1
20260505085226 58 171 1.7 2.6 0.00 0.00 0.00 78 1009.2
20260505084739 58 171 0.9 2.6 0.00 0.00 0.00 78 1009.2
20260505084229 58 171 0.0 3.5 0.00 0.00 0.00 78 1009.2
20260505083719 58 171 0.9 3.5 0.00 0.00 0.00 78 1009.2
20260505083237 58 171 0.0 4.3 0.00 0.00 0.00 79 1009.2
20260505082725 58 171 0.9 4.3 0.00 0.00 0.00 79 1009.2
20260505082221 58 171 1.7 4.3 0.00 0.00 0.00 78 1009.3
20260505081738 58 171 2.6 4.3 0.00 0.00 0.00 79 1009.3
20260505081254 58 170 0.9 4.3 0.00 0.00 0.00 79 1009.3
20260505080754 58 170 0.9 4.3 0.00 0.00 0.00 79 1009.3
20260505080221 58 170 0.0 5.2 0.00 0.00 0.00 78 1009.3
20260505075733 58 175 0.9 5.2 0.00 0.00 0.00 78 1009.3
20260505075226 58 214 0.9 3.5 0.00 0.00 0.00 78 1009.3
20260505074759 58 214 1.7 3.5 0.00 0.00 0.00 77 1009.3
20260505074227 58 214 0.9 2.6 0.00 0.00 0.00 77 1009.2
20260505073801 58 214 0.9 4.3 0.00 0.00 0.00 76 1009.2
20260505073232 58 214 0.9 4.3 0.00 0.00 0.00 75 1009.2
20260505072724 58 214 2.6 4.3 0.00 0.00 0.00 75 1009.1
20260505072239 58 214 0.9 4.3 0.00 0.00 0.00 75 1008.9
20260505071726 58 205 1.7 5.2 0.00 0.00 0.00 75 1009.0
20260505071220 58 180 2.6 7.8 0.00 0.00 0.00 75 1008.9
20260505070738 58 191 5.2 7.8 0.00 0.00 0.00 75 1008.9
20260505070222 58 206 4.3 7.0 0.00 0.00 0.00 75 1008.8
20260505065739 58 207 4.3 7.0 0.00 0.00 0.00 74 1008.9
20260505065231 58 202 1.7 6.1 0.00 0.00 0.00 74 1008.8
20260505064742 58 210 1.7 7.0 0.00 0.00 0.00 74 1008.8
20260505064234 58 171 3.5 7.8 0.00 0.00 0.00 74 1008.8
20260505063721 58 152 3.5 7.8 0.00 0.00 0.00 74 1008.9
20260505063234 58 201 3.5 7.8 0.00 0.00 0.00 74 1008.9
20260505062725 59 171 2.6 7.8 0.00 0.00 0.00 73 1008.9
20260505062219 59 143 2.6 7.8 0.00 0.00 0.00 73 1009.0
20260505061737 59 192 2.6 6.1 0.00 0.00 0.00 73 1009.0
20260505061226 59 187 2.6 6.1 0.00 0.00 0.00 73 1009.0
20260505060720 59 207 3.5 7.0 0.00 0.00 0.00 73 1009.1
20260505060236 59 183 4.3 6.1 0.00 0.00 0.00 72 1009.1
20260505055725 59 161 3.5 6.1 0.00 0.00 0.00 72 1009.0
20260505055221 59 181 3.5 7.8 0.00 0.00 0.00 72 1009.0
20260505054737 59 207 5.2 7.8 0.00 0.00 0.00 72 1009.1
20260505054246 60 167 1.7 7.0 0.00 0.00 0.00 71 1009.1
20260505053741 60 219 4.3 9.6 0.00 0.00 0.00 71 1009.1
20260505053227 60 184 5.2 9.6 0.00 0.00 0.00 71 1009.1
20260505052744 60 200 3.5 7.0 0.00 0.00 0.00 71 1009.1
20260505052235 60 189 3.5 8.7 0.00 0.00 0.00 71 1009.1
20260505051723 60 209 3.5 8.7 0.00 0.00 0.00 70 1009.2
20260505051238 60 153 2.6 8.7 0.00 0.00 0.00 70 1009.2
20260505050746 60 215 3.5 8.7 0.00 0.00 0.00 70 1009.2
20260505050239 60 197 4.3 7.0 0.00 0.00 0.00 70 1009.1
20260505041737 61 194 2.6 8.7 0.00 0.00 0.00 69 1009.3
20260505041227 61 229 1.7 8.7 0.00 0.00 0.00 68 1009.3
20260505040802 61 199 5.2 10.4 0.00 0.00 0.00 68 1009.2
20260505040232 61 192 7.8 10.4 0.00 0.00 0.00 68 1009.2
20260505035724 61 162 2.6 7.8 0.00 0.00 0.00 68 1009.2
20260505035237 61 192 3.5 8.7 0.00 0.00 0.00 68 1009.2
20260505034758 62 159 6.1 8.7 0.00 0.00 0.00 67 1009.3
20260505034224 62 207 4.3 8.7 0.00 0.00 0.00 67 1009.2
20260505033740 62 198 3.5 8.7 0.00 0.00 0.00 67 1009.1
20260505033229 62 208 5.2 9.6 0.00 0.00 0.00 67 1009.2
20260505032745 62 163 4.3 9.6 0.00 0.00 0.00 67 1009.4
20260505032235 62 202 6.1 8.7 0.00 0.00 0.00 67 1009.4
20260505031724 62 202 4.3 7.8 0.00 0.00 0.00 66 1009.4
20260505031239 62 159 4.3 12.2 0.00 0.00 0.00 66 1009.4
20260505030734 62 175 7.0 12.2 0.00 0.00 0.00 66 1009.5
20260505030245 62 190 3.5 7.8 0.00 0.00 0.00 66 1009.5
20260505025735 62 196 5.2 7.0 0.00 0.00 0.00 66 1009.5
20260505025226 62 183 2.6 5.2 0.00 0.00 0.00 65 1009.6
20260505024721 62 153 3.5 7.0 0.00 0.00 0.00 65 1009.7
20260505024235 62 189 1.7 7.0 0.00 0.00 0.00 64 1009.6
20260505023745 62 170 1.7 7.0 0.00 0.00 0.00 64 1009.7
20260505023252 62 182 3.5 8.7 0.00 0.00 0.00 63 1009.6
20260505022741 63 184 4.3 8.7 0.00 0.00 0.00 62 1009.6
20260505022231 63 174 3.5 7.8 0.00 0.00 0.00 61 1009.6
20260505021742 63 184 2.6 7.0 0.00 0.00 0.00 61 1009.6
20260505021233 63 232 4.3 7.8 0.00 0.00 0.00 60 1009.7
20260505020724 63 178 5.2 7.8 0.00 0.00 0.00 59 1009.6
20260505020242 64 136 4.3 7.0 0.00 0.00 0.00 58 1009.7
20260505015731 64 150 4.3 10.4 0.00 0.00 0.00 57 1009.6
20260505015305 64 184 4.3 10.4 0.00 0.00 0.00 57 1009.6
20260505014736 64 144 5.2 10.4 0.00 0.00 0.00 56 1009.6
20260505014224 64 194 4.3 7.8 0.00 0.00 0.00 55 1009.5
20260505013742 65 147 5.2 7.8 0.00 0.00 0.00 54 1009.4
20260505013232 65 191 4.3 7.0 0.00 0.00 0.00 53 1009.4
20260505012722 65 192 5.2 8.7 0.00 0.00 0.00 52 1009.4
20260505012236 65 161 6.1 8.7 0.00 0.00 0.00 50 1009.4
20260505011744 65 140 2.6 7.0 0.00 0.00 0.00 49 1009.3
20260505011236 66 143 4.3 7.0 0.00 0.00 0.00 49 1009.2
20260505010745 66 180 4.3 6.1 0.00 0.00 0.00 49 1009.1
20260505010218 66 171 1.7 4.3 0.00 0.00 0.00 48 1008.9
20260505005735 66 177 1.7 5.2 0.00 0.00 0.00 48 1008.9
20260505005243 67 182 3.5 7.0 0.00 0.00 0.00 47 1008.9
20260505004733 67 201 3.5 7.0 0.00 0.00 0.00 47 1008.9
20260505004306 67 213 1.7 5.2 0.00 0.00 0.00 47 1008.9
20260505003757 67 187 1.7 6.1 0.00 0.00 0.00 46 1008.8
20260505003244 68 174 2.6 6.1 0.00 0.00 0.00 46 1008.7
20260505002741 68 203 0.9 6.1 0.00 0.00 0.00 45 1008.7
20260505002230 68 203 1.7 6.1 0.00 0.00 0.00 45 1008.7
20260505001744 69 166 0.9 6.1 0.00 0.00 0.00 44 1008.6
20260505001242 69 166 2.6 7.0 0.00 0.00 0.00 43 1008.6
20260505000732 69 191 2.6 7.8 0.00 0.00 0.00 43 1008.6
20260505000219 69 175 2.6 8.7 0.00 0.00 0.00 43 1008.5
20260504235735 70 188 2.6 8.7 0.00 0.00 0.00 42 1008.5
20260504235224 70 176 1.7 10.4 0.00 0.00 0.00 42 1008.4
20260504234719 70 186 3.5 13.0 0.00 0.00 0.00 41 1008.4
20260504234233 71 181 6.1 13.0 0.00 0.00 0.00 41 1008.3
20260504233721 71 194 5.2 10.4 0.00 0.00 0.00 41 1008.3
20260504233234 71 246 4.3 10.4 0.00 0.00 0.00 40 1008.2
20260504232725 72 205 7.0 12.2 0.00 0.00 0.00 40 1008.2
20260504232240 72 213 7.0 12.2 0.00 0.00 0.00 39 1008.2
20260504231732 73 209 1.7 11.3 0.00 0.00 0.00 38 1008.1
20260504231225 73 192 4.3 11.3 0.00 0.00 0.00 38 1008.1
20260504230740 73 221 5.2 10.4 0.00 0.00 0.00 39 1008.1
20260504230247 74 188 4.3 10.4 0.00 0.00 0.00 38 1008.1
20260504225758 73 214 7.0 13.0 0.00 0.00 0.00 38 1008.1
20260504225228 74 204 2.6 13.0 0.00 0.00 0.00 38 1008.1
20260504224721 74 238 6.1 12.2 0.00 0.00 0.00 38 1008.0
20260504224236 74 214 4.3 10.4 0.00 0.00 0.00 38 1008.0
20260504223723 74 245 5.2 12.2 0.00 0.00 0.00 36 1008.0
20260504223216 74 203 5.2 11.3 0.00 0.00 0.00 37 1008.0
20260504222735 74 161 7.0 13.9 0.00 0.00 0.00 37 1008.1
20260504222244 74 227 5.2 13.9 0.00 0.00 0.00 36 1008.1
20260504221739 74 207 6.1 9.6 0.00 0.00 0.00 37 1008.1
20260504221227 75 147 5.2 11.3 0.00 0.00 0.00 35 1008.1
20260504220801 75 188 3.5 13.0 0.00 0.00 0.00 37 1008.0
20260504220232 75 201 5.2 13.9 0.00 0.00 0.00 36 1008.1
20260504215721 75 157 7.0 13.9 0.00 0.00 0.00 35 1008.2
20260504215235 75 198 7.0 11.3 0.00 0.00 0.00 37 1008.3
20260504214743 75 197 5.2 15.6 0.00 0.00 0.00 36 1008.2
20260504214233 75 213 7.8 12.2 0.00 0.00 0.00 36 1008.3
20260504213723 75 215 8.7 13.0 0.00 0.00 0.00 35 1008.3
20260504213304 75 219 4.3 13.0 0.00 0.00 0.00 35 1008.2
20260504212735 75 204 5.2 9.6 0.00 0.00 0.00 35 1008.2
20260504212223 75 155 5.2 8.7 0.00 0.00 0.00 36 1008.3
20260504211720 75 156 5.2 8.7 0.00 0.00 0.00 35 1008.3
20260504211303 75 189 2.6 11.3 0.00 0.00 0.00 36 1008.4
20260504210733 76 159 7.0 15.6 0.00 0.00 0.00 36 1008.4
20260504210239 76 202 4.3 15.6 0.00 0.00 0.00 35 1008.4
20260504205729 75 162 5.2 17.4 0.00 0.00 0.00 36 1008.3
20260504205240 75 174 10.4 17.4 0.00 0.00 0.00 35 1008.3
20260504204730 75 219 7.0 13.9 0.00 0.00 0.00 35 1008.4
20260504204239 75 194 7.0 15.6 0.00 0.00 0.00 35 1008.3
20260504203736 75 223 7.8 15.6 0.00 0.00 0.00 35 1008.4
20260504203224 75 200 4.3 17.4 0.00 0.00 0.00 35 1008.4
20260504202739 76 202 6.1 17.4 0.00 0.00 0.00 33 1008.4
20260504202228 76 178 7.8 15.6 0.00 0.00 0.00 34 1008.3
20260504201741 76 181 3.5 15.6 0.00 0.00 0.00 37 1008.4
20260504201231 75 219 7.8 15.6 0.00 0.00 0.00 35 1008.3
20260504200741 75 161 7.0 15.6 0.00 0.00 0.00 37 1008.5
20260504200258 75 227 7.0 13.9 0.00 0.00 0.00 34 1008.5
20260504195755 75 183 6.1 9.6 0.00 0.00 0.00 36 1008.5
20260504195223 74 205 7.0 12.2 0.00 0.00 0.00 36 1008.6
20260504194717 74 192 6.1 12.2 0.00 0.00 0.00 34 1008.7
20260504194300 75 224 4.3 15.6 0.00 0.00 0.00 34 1008.7
20260504193756 74 200 3.5 17.4 0.00 0.00 0.00 37 1008.8
20260504193241 75 184 10.4 17.4 0.00 0.00 0.00 34 1008.9
20260504192734 75 205 11.3 13.9 0.00 0.00 0.00 35 1008.8
20260504192242 75 204 7.0 13.9 0.00 0.00 0.00 36 1009.0
20260504191736 75 211 5.2 20.0 0.00 0.00 0.00 35 1009.1
20260504191224 75 286 11.3 20.0 0.00 0.00 0.00 34 1009.1
20260504190739 75 184 7.8 18.2 0.00 0.00 0.00 37 1009.1
20260504190229 74 207 7.0 18.2 0.00 0.00 0.00 35 1009.3
20260504185743 74 194 8.7 12.2 0.00 0.00 0.00 36 1009.4
20260504185233 74 249 7.8 12.2 0.00 0.00 0.00 35 1009.3
20260504184722 74 215 5.2 18.2 0.00 0.00 0.00 35 1009.5
20260504184300 74 163 5.2 18.2 0.00 0.00 0.00 37 1009.5
20260504183732 74 235 6.1 13.9 0.00 0.00 0.00 36 1009.7
20260504183241 74 132 4.3 15.6 0.00 0.00 0.00 37 1009.6
20260504182730 74 253 4.3 15.6 0.00 0.00 0.00 36 1009.8
20260504182242 73 225 7.8 12.2 0.00 0.00 0.00 37 1009.8
20260504181739 73 146 4.3 12.2 0.00 0.00 0.00 36 1009.8
20260504181227 73 212 7.8 13.0 0.00 0.00 0.00 39 1009.9
20260504180719 73 198 8.7 13.0 0.00 0.00 0.00 37 1009.9
20260504180234 73 269 5.2 10.4 0.00 0.00 0.00 39 1010.0
20260504175723 73 189 6.1 13.0 0.00 0.00 0.00 40 1010.1
20260504175236 73 156 7.0 13.0 0.00 0.00 0.00 40 1010.2
20260504174724 73 175 7.8 15.6 0.00 0.00 0.00 39 1010.2
20260504174256 73 187 12.2 15.6 0.00 0.00 0.00 39 1010.3
20260504173727 73 139 6.1 16.5 0.00 0.00 0.00 40 1010.2
20260504173238 72 133 4.3 16.5 0.00 0.00 0.00 39 1010.3
20260504172731 72 244 2.6 12.2 0.00 0.00 0.00 39 1010.4
20260504172239 72 204 7.0 12.2 0.00 0.00 0.00 39 1010.4
20260504171736 72 221 6.1 12.2 0.00 0.00 0.00 40 1010.5
20260504171222 71 157 6.1 10.4 0.00 0.00 0.00 44 1010.5
20260504170738 71 315 5.2 10.4 0.00 0.00 0.00 42 1010.7
20260504170231 71 229 2.6 10.4 0.00 0.00 0.00 41 1010.7
20260504160240 69 202 7.0 13.9 0.00 0.00 0.00 43 1011.8
20260504150738 66 250 5.2 8.7 0.00 0.00 0.00 51 1012.2
20260504150227 66 188 6.1 9.6 0.00 0.00 0.00 54 1012.2
20260504141235 62 309 3.5 15.6 0.00 0.00 0.00 56 1012.3
20260504140726 62 223 5.2 15.6 0.00 0.00 0.00 54 1012.4
20260504140243 62 200 7.0 11.3 0.00 0.00 0.00 53 1012.4
20260504130735 59 236 5.2 16.5 0.00 0.00 0.00 58 1012.9
20260504130242 59 201 8.7 15.6 0.00 0.00 0.00 58 1013.1
20260504120232 55 203 5.2 11.3 0.00 0.00 0.00 70 1013.2